Tracking 19644 objects as of 25-Apr-2019
HD Live streaming from Space Station
objects crossing your sky now

SL-16 DEB

Track SL-16 DEB now!
10-day predictions


NORAD ID: 31794
Int'l Code: 2007-029C
Perigee: 851.8 km
Apogee: 1,154.1 km
Inclination: 71.0 °
Period: 105.0 minutes
Semi major axis: 7373 km
RCS: 0.083 m2 (small)
Launch date: June 29, 2007
Source: Commonwealth of Independent States (former USSR) (CIS)
Launch site: TYURATAM MISSILE AND SPACE COMPLEX (TTMTR)

Note: This is SATELLITE DEBRIS
aabbcc
Your satellite tracking list
Your tracking list is empty




NASA's NSSDC Master Catalog

Two Line Element Set (TLE):
1 31794U 07029C   19115.09805740 -.00000023  00000-0  17553-4 0  9993
2 31794  71.0429 345.1792 0204965  55.8890  18.3881 13.71056014591610
Source of the keplerian elements: AFSPC